Fiddler抓包工具.rar
下载
工具 抓包 HTTP
查看(1)

所属分类:网络技术 > 网络监控
文件大小:4.55 MB
上传日期:2022-11-21 14:37
MD5:6b3ba36bd8************5e66338ea6
资源说明:Fidder工具,实用免安装,本人亲测有效,Fiddler是位于客户端和服务器端之间的代理,也是目前最常用的抓包工具之一 。它能够记录客户端和服务器之间的所有请求。

[资源合计] 文件夹:7,文件:89

# 文件名称 大小 最后修改时间
1 Fiddler\Analytics.dll 32.95 KB 2018/3/12 20:37:26
2 Fiddler\Analytics.pdb 63.5 KB 2018/3/12 20:37:26
3 Fiddler\App.ico 24.92 KB 2018/3/13 3:41:08
4 Fiddler\Be.Windows.Forms.HexBox.dll 60.37 KB 2018/3/13 3:41:08
5 Fiddler\Countdown.wav 1.37 KB 2018/3/13 3:41:08
6 Fiddler\credits.txt 2.86 KB 2018/3/13 3:41:08
7 Fiddler\EnableLoopback.exe 86.47 KB 2018/3/13 3:44:08
8 Fiddler\EnableLoopback.pdb 53.5 KB 2018/3/13 3:41:44
9 Fiddler\ExecAction.exe 19.37 KB 2018/3/13 3:41:08
10 Fiddler\Fiddler.exe 1.36 MB 2018/3/13 3:43:58
11 Fiddler\Fiddler.exe.config 252 Bytes 2018/3/13 3:41:08
12 Fiddler\Fiddler.pdb 1.25 MB 2018/3/13 3:43:52
13 Fiddler\ForceCPU.exe 19.37 KB 2018/3/13 3:41:08
14 Fiddler\GA.Analytics.Monitor.dll 52.45 KB 2018/3/12 20:37:22
15 Fiddler\GA.Analytics.Monitor.pdb 93.5 KB 2018/3/12 20:37:22
16 Fiddler\ImportExport\BasicFormats.dll 116.47 KB 2018/3/13 3:44:00
17 Fiddler\ImportExport\BasicFormats.pdb 179.5 KB 2018/3/13 3:41:42
18 Fiddler\ImportExport\VSWebTestExport.dll 48.97 KB 2018/3/13 3:44:00
19 Fiddler\ImportExport\VSWebTestExport.pdb 97.5 KB 2018/3/13 3:41:44
20 Fiddler\Inspectors\QWhale.Common.dll 192 KB 2018/3/13 3:41:08
21 Fiddler\Inspectors\QWhale.Editor.dll 816 KB 2018/3/13 3:41:08
22 Fiddler\Inspectors\QWhale.Syntax.dll 228 KB 2018/3/13 3:41:08
23 Fiddler\Inspectors\QWhale.Syntax.Schemes.dll 284 KB 2018/3/13 3:41:08
24 Fiddler\Inspectors\Standard.dll 249.97 KB 2018/3/13 3:44:04
25 Fiddler\Inspectors\SyntaxView.dll 72.97 KB 2018/3/13 3:44:12
26 Fiddler\license.txt 5.53 KB 2018/3/13 3:41:08
27 Fiddler\LoadScript.wav 4.67 KB 2018/3/13 3:41:08
28 Fiddler\LoadScriptError.wav 1.46 KB 2018/3/13 3:41:08
29 Fiddler\makecert.exe 54.33 KB 2018/3/13 3:41:08
30 Fiddler\ResponseTemplates\200_FiddlerGif.dat 433 Bytes 2018/3/13 3:41:08
31 Fiddler\ResponseTemplates\200_SimpleHTML.dat 150 Bytes 2018/3/13 3:41:08
32 Fiddler\ResponseTemplates\200_TransPixel.dat 173 Bytes 2018/3/13 3:41:08
33 Fiddler\ResponseTemplates\204_NoContent.dat 106 Bytes 2018/3/13 3:41:08
34 Fiddler\ResponseTemplates\302_Redirect.dat 165 Bytes 2018/3/13 3:41:08
35 Fiddler\ResponseTemplates\303_RedirectWithGet.dat 175 Bytes 2018/3/13 3:41:08
36 Fiddler\ResponseTemplates\304_NotModified.dat 108 Bytes 2018/3/13 3:41:08
37 Fiddler\ResponseTemplates\307_RedirectWithMethod.dat 183 Bytes 2018/3/13 3:41:08
38 Fiddler\ResponseTemplates\401_AuthBasic.dat 707 Bytes 2018/3/13 3:41:08
39 Fiddler\ResponseTemplates\401_AuthDigest.dat 823 Bytes 2018/3/13 3:41:08
40 Fiddler\ResponseTemplates\403_AuthDeny.dat 631 Bytes 2018/3/13 3:41:08
41 Fiddler\ResponseTemplates\404_Plain.dat 652 Bytes 2018/3/13 3:41:08
42 Fiddler\ResponseTemplates\407_ProxyAuthBasic.dat 719 Bytes 2018/3/13 3:41:08
43 Fiddler\ResponseTemplates\502_Unreachable.dat 661 Bytes 2018/3/13 3:41:08
44 Fiddler\saz.ico 11.23 KB 2018/3/13 3:41:08
45 Fiddler\Screenshot.wav 12.78 KB 2018/3/13 3:41:08
46 Fiddler\ScriptEditor\Analytics.dll 32.95 KB 2018/3/12 20:37:26
47 Fiddler\ScriptEditor\Analytics.pdb 63.5 KB 2018/3/12 20:37:26
48 Fiddler\ScriptEditor\EQATEC.Analytics.Monitor.dll 154 KB 2018/3/12 20:37:26
49 Fiddler\ScriptEditor\FSE2.exe 50 KB 2018/3/13 3:41:52
50 Fiddler\ScriptEditor\FSE2.exe.config 106 Bytes 2018/3/13 3:41:08
51 Fiddler\ScriptEditor\GA.Analytics.Monitor.dll 52.45 KB 2018/3/12 20:37:22
52 Fiddler\ScriptEditor\GA.Analytics.Monitor.pdb 93.5 KB 2018/3/12 20:37:22
53 Fiddler\ScriptEditor\QWhale.Common.dll 192 KB 2018/3/13 3:41:08
54 Fiddler\ScriptEditor\QWhale.Editor.dll 816 KB 2018/3/13 3:41:08
55 Fiddler\ScriptEditor\QWhale.Syntax.dll 228 KB 2018/3/13 3:41:08
56 Fiddler\ScriptEditor\QWhale.Syntax.Parsers.dll 1.14 MB 2018/3/13 3:41:08
57 Fiddler\Scripts\FiddlerOrchestra.Addon.dll 51.47 KB 2018/3/13 3:39:06
58 Fiddler\Scripts\FiddlerOrchestra.Addon.pdb 65.5 KB 2018/3/13 3:39:06
59 Fiddler\Scripts\FiddlerOrchestra.Connection.dll 1.67 MB 2018/3/13 3:39:06
60 Fiddler\Scripts\FiddlerOrchestra.Protocol.dll 22.97 KB 2018/3/13 3:39:06
61 Fiddler\Scripts\FiddlerOrchestra.Utilities.dll 18.97 KB 2018/3/13 3:39:06
62 Fiddler\Scripts\netstandard.dll 96.3 KB 2018/3/13 3:39:06
63 Fiddler\Scripts\QWhale.Common.dll 192 KB 2018/3/13 3:41:08
64 Fiddler\Scripts\QWhale.Editor.dll 816 KB 2018/3/13 3:41:08
65 Fiddler\Scripts\QWhale.Syntax.dll 228 KB 2018/3/13 3:41:08
66 Fiddler\Scripts\QWhale.Syntax.Parsers.dll 1.14 MB 2018/3/13 3:41:08
67 Fiddler\Scripts\RulesTab2.dll 38.97 KB 2018/3/13 3:44:12
68 Fiddler\Scripts\SampleRules.cs 23.64 KB 2018/3/13 3:41:08
69 Fiddler\Scripts\SampleRules.js 21.87 KB 2018/3/13 3:41:08
70 Fiddler\Scripts\SimpleFilter.dll 135.97 KB 2018/3/13 3:44:04
71 Fiddler\Scripts\SimpleFilter.pdb 151.5 KB 2018/3/13 3:41:42
72 Fiddler\Scripts\Timeline.dll 42.47 KB 2018/3/13 3:44:02
73 Fiddler\Scripts\Timeline.pdb 35.5 KB 2018/3/13 3:41:44
74 Fiddler\SetupHelper 22.47 KB 2018/3/13 3:44:14
75 Fiddler\Telerik.Analytics.dll 105 KB 2018/3/12 20:37:26
76 Fiddler\Tools\Brotli.exe 732.2 KB 2018/3/13 3:41:08
77 Fiddler\Tools\dwebp.exe 227 KB 2018/3/13 3:41:08
78 Fiddler\Tools\JXR2PNG.exe 13.96 KB 2018/3/13 3:41:08
79 Fiddler\Tools\JXR2PNG.exe.config 269 Bytes 2018/3/13 3:41:08
80 Fiddler\Tools\PngDistill.exe 50.97 KB 2018/3/13 3:44:08
81 Fiddler\Tools\PngDistill.pdb 21.5 KB 2018/3/13 3:41:44
82 Fiddler\Tools\Zopfli.exe 162.34 KB 2018/3/13 3:41:08
83 Fiddler\TrustCert.exe 25.97 KB 2018/3/13 3:44:06
84 Fiddler\TrustCert.pdb 13.5 KB 2018/3/13 3:41:42
85 Fiddler\uninst.exe 100.03 KB 2018/3/13 3:44:48
86 Fiddler\Xceed.Compression.Formats.v5.4.dll 76 KB 2018/3/13 3:41:10
87 Fiddler\Xceed.Compression.v5.4.dll 264 KB 2018/3/13 3:41:10
88 Fiddler\Xceed.FileSystem.v5.4.dll 128 KB 2018/3/13 3:41:10
89 Fiddler\Xceed.Zip.v5.4.dll 308 KB 2018/3/13 3:41:10
90 Fiddler\ImportExport 0 Bytes 2018/2/2 11:02:39
91 Fiddler\Inspectors 0 Bytes 2018/2/2 11:02:39
92 Fiddler\ResponseTemplates 0 Bytes 2018/2/2 11:02:38
93 Fiddler\ScriptEditor 0 Bytes 2018/3/16 10:10:36
94 Fiddler\Scripts 0 Bytes 2018/2/2 11:02:39
95 Fiddler\Tools 0 Bytes 2018/2/2 11:02:39
96 Fiddler 0 Bytes 2018/3/16 10:10:36

请留下有营养的评论,广告灌水一律拉黑处理,谢谢合作!